[[{"header":{"parameterUnit":"m.s-1","parameterCategory":1,"la1":30.2991,"la2":30.254,"lo1":-89.0895,"lo2":-89.0444,"dy":0.0017,"dx":0.0017,"nx":28,"ny":28,"refTime":"2023-08-24T09:00:00:Z","depth":0,"parameterNumber":2,"parameterNumberName":"U-component_of_WINDS"},"data":[0,0,0,0,0,0,0,0,0,0,0,0,0,0,0,0,0,0,0,0,0,0,0,0,0,0,0,0,0,0,0,0,0,0,0,0,0,0,0,0,0,0,0,0,0,0,0,0,0,0,0,0,0,0,0,0,0,0,-0.8464,-0.8464,0,-0.8496,-0.8496,-0.8496,-0.8496,-0.8495,-0.8495,-0.8495,-0.8527,-0.8528,-0.8529,0,0,0,0,0,0,0,0,0,0,0,0,0,-0.8403,-0.8405,-0.8464,-0.8464,-0.8465,-0.8496,-0.8496,-0.8497,-0.8496,-0.8495,-0.8495,-0.8494,-0.8526,-0.8528,-0.8529,0,0,0,0,0,0,0,0,0,0,0,0,0,-0.8432,-0.8405,-0.8464,-0.8468,-0.8469,-0.8496,-0.8496,-0.8497,-0.8496,-0.8495,-0.8495,-0.8494,-0.8526,-0.8528,-0.8529,-0.8554,0,0,-0.8535,-0.8536,0,0,0,0,0,0,0,0,-0.843,-0.8434,-0.8467,-0.8468,-0.8469,-0.8491,-0.8487,-0.8516,-0.8496,-0.8486,-0.8495,-0.8494,-0.8515,-0.8518,-0.8525,-0.8555,-0.8557,-0.8535,-0.8537,-0.8537,-0.8538,0,0,0,0,0,0,0,-0.8428,-0.8433,-0.8477,-0.8468,-0.8469,-0.8469,-0.8472,-0.8492,-0.8504,-0.8487,-0.8487,-0.849,-0.8516,-0.8524,-0.8526,-0.8557,-0.8535,-0.8537,-0.8538,-0.8539,-0.861,-0.8611,0,0,0,0,0,0,-0.8425,-0.8431,-0.8476,-0.8477,-0.8448,-0.847,-0.8474,-0.8485,-0.8504,-0.8506,-0.8491,-0.849,-0.8521,-0.8524,-0.8527,-0.8558,-0.8537,-0.8539,-0.854,-0.8609,-0.861,-0.8611,0,0,0,0,0,0,-0.8424,-0.8429,-0.8474,-0.8454,-0.846,-0.8472,-0.8484,-0.8486,-0.8493,-0.8507,-0.8509,-0.8497,-0.852,-0.8525,-0.8548,-0.8559,-0.854,-0.8542,-0.8609,-0.861,-0.8611,-0.8618,0,0,0,0,0,0,-0.8422,-0.8429,-0.8438,-0.8455,-0.8461,-0.8494,-0.8485,-0.8487,-0.8497,-0.8496,-0.8513,-0.8515,-0.852,-0.8545,-0.8549,-0.8561,-0.8543,-0.8608,-0.8609,-0.861,-0.8617,-0.8619,-0.8622,0,0,0,0,0,-0.842,-0.8439,-0.8438,-0.8444,-0.8473,-0.8494,-0.8498,-0.8504,-0.8498,-0.8507,-0.8516,-0.8514,-0.8557,-0.8547,-0.8552,-0.8565,-0.8607,-0.8609,-0.861,-0.8616,-0.8619,-0.8622,0,0,0,0,0,0,-0.8422,-0.8441,-0.8441,-0.8465,-0.8478,-0.8494,-0.8506,-0.8507,-0.8522,-0.852,-0.8527,-0.8531,-0.8554,-0.8562,-0.855,-0.859,-0.8581,-0.8584,-0.8584,-0.8587,-0.8589,-0.8586,-0.8545,0,0,0,0,0,-0.8426,-0.8442,-0.8457,-0.8477,-0.8484,-0.8494,-0.8504,-0.8507,-0.8521,-0.8526,-0.8537,-0.855,-0.8567,-0.8577,-0.8593,-0.8619,-0.8622,-0.863,-0.8632,-0.8634,-0.8636,-0.8651,-0.8654,-0.8617,-0.8617,-0.8617,0,0,-0.8433,-0.8445,-0.8454,-0.8478,-0.8488,-0.8505,-0.8499,-0.8516,-0.8529,-0.8529,-0.8551,-0.856,-0.8575,-0.86,-0.8611,-0.8607,-0.8647,-0.8636,-0.8637,-0.8639,-0.8653,-0.8656,-0.866,-0.8618,-0.8618,-0.8618,0,0,-0.8454,-0.8465,-0.8483,-0.8494,-0.851,-0.8517,-0.8522,-0.8538,-0.8544,-0.8566,-0.8567,-0.8582,-0.861,-0.8622,-0.8631,-0.8658,-0.8658,-0.8664,-0.8675,-0.869,-0.8693,-0.8695,-0.8705,-0.8709,-0.8666,-0.8666,-0.8666,0,-0.8461,-0.8486,-0.8492,-0.851,-0.8521,-0.8522,-0.8541,-0.8551,-0.8572,-0.8579,-0.8575,-0.8611,-0.8621,-0.8649,-0.8656,-0.8663,-0.8669,-0.8661,-0.8692,-0.8694,-0.8697,-0.8706,-0.871,-0.8666,-0.8666,-0.8666,-0.8666,0,-0.8493,-0.8511,-0.8523,-0.8544,-0.8556,-0.8574,-0.8584,-0.8595,-0.8598,-0.8606,-0.8629,-0.8642,-0.8661,-0.8668,-0.8671,-0.8696,-0.8693,-0.869,-0.8681,-0.8701,-0.871,-0.8714,-0.8667,-0.8667,-0.8667,-0.8667,0,0,-0.8515,-0.854,-0.8545,-0.8554,-0.8573,-0.8587,-0.8606,-0.8625,-0.8635,-0.8649,-0.8665,-0.869,-0.8688,-0.8698,-0.8702,-0.8715,-0.8736,-0.871,-0.8711,-0.8715,-0.8766,-0.8768,-0.8772,-0.8737,-0.8737,-0.8738,-0.8765,0,-0.8538,-0.8572,-0.8579,-0.8608,-0.8624,-0.8627,-0.8643,-0.8657,-0.8665,-0.8681,-0.8689,-0.8707,-0.8702,-0.8709,-0.8721,-0.8731,-0.8747,-0.8729,-0.8752,-0.8752,-0.8747,-0.8777,-0.8779,-0.8803,-0.8768,-0.8769,-0.8769,0,-0.8569,-0.8585,-0.8616,-0.8634,-0.8641,-0.8656,-0.8674,-0.8689,-0.8705,-0.871,-0.8723,-0.8726,-0.8746,-0.8737,-0.8765,-0.8753,-0.8763,-0.8769,-0.877,-0.8772,-0.8762,-0.8779,-0.8811,-0.8815,-0.8775,-0.8775,-0.8774,0,-0.8583,-0.8612,-0.8634,-0.8643,-0.8664,-0.8674,-0.8684,-0.8699,-0.871,-0.8727,-0.8734,-0.8752,-0.8762,-0.8777,-0.8785,-0.8778,-0.8813,-0.8804,-0.8817,-0.8817,-0.8824,-0.8823,-0.8858,-0.8831,-0.8831,-0.8831,-0.8831,0,-0.8607,-0.8626,-0.8641,-0.8654,-0.8676,-0.8684,-0.8705,-0.8714,-0.8728,-0.8744,-0.8748,-0.8762,-0.8773,-0.8789,-0.8796,-0.8818,-0.8823,-0.8827,-0.8829,-0.8827,-0.8826,-0.8833,-0.8831,-0.8832,-0.8832,-0.8831,-0.8831,0,-0.8625,-0.8636,-0.866,-0.8679,-0.8684,-0.8699,-0.8715,-0.8729,-0.8737,-0.8757,-0.8763,-0.8776,-0.8796,-0.8806,-0.883,-0.8835,-0.886,-0.8861,-0.8855,-0.8855,-0.8868,-0.8866,-0.8907,-0.8913,-0.8883,-0.8883,-0.8883,0,-0.864,-0.8654,-0.8675,-0.8686,-0.8696,-0.8714,-0.8725,-0.8735,-0.8747,-0.8767,-0.8778,-0.8798,-0.8815,-0.8846,-0.8858,-0.8877,-0.8878,-0.8891,-0.8881,-0.8878,-0.8878,-0.8877,-0.8878,-0.8893,-0.8893,-0.8893,-0.8893,0,-0.8665,-0.867,-0.8687,-0.8706,-0.872,-0.8736,-0.8751,-0.876,-0.8772,-0.8786,-0.8806,-0.8819,-0.8844,-0.8864,-0.8884,-0.8894,-0.8896,-0.8897,-0.8901,-0.8898,-0.8894,-0.8897,-0.8859,-0.8895,-0.8895,-0.8895,-0.8895,-0.8895,-0.8682,-0.8695,-0.8712,-0.8731,-0.8744,-0.8758,-0.8772,-0.8783,-0.88,-0.8822,-0.8827,-0.8848,-0.8865,-0.8892,-0.8903,-0.892,-0.8918,-0.8923,-0.8925,-0.8926,-0.8927,-0.8892,-0.8924,-0.8924,-0.8924,-0.8924,-0.8924,0,-0.8707,-0.8719,-0.8736,-0.8758,-0.8773,-0.8774,-0.8791,-0.8804,-0.8823,-0.8839,-0.8855,-0.8879,-0.8899,-0.8913,-0.8933,-0.8944,-0.8946,-0.8949,-0.8948,-0.8951,-0.8928,-0.8922,-0.8948,-0.8948,-0.8948,-0.8948,-0.8948,-0.8948,-0.8722,-0.8745,-0.8752,-0.8782,-0.8793,-0.8814,-0.8824,-0.8838,-0.885,-0.8877,-0.8894,-0.8903,-0.8918,-0.894,-0.8958,-0.8962,-0.8969,-0.8972,-0.8976,-0.8955,-0.8952,-0.895,-0.8944,-0.8974,-0.8974,-0.8997,-0.8998,-0.8998]},{"header":{"parameterUnit":"m.s-1","parameterCategory":1,"la1":30.2991,"la2":30.254,"lo1":-89.0895,"lo2":-89.0444,"dy":0.0017,"dx":0.0017,"nx":28,"ny":28,"refTime":"2023-08-24T09:00:00:Z","depth":0,"parameterNumber":3,"parameterNumberName":"V-component_of_WINDS"},"data":[0,0,0,0,0,0,0,0,0,0,0,0,0,0,0,0,0,0,0,0,0,0,0,0,0,0,0,0,0,0,0,0,0,0,0,0,0,0,0,0,0,0,0,0,0,0,0,0,0,0,0,0,0,0,0,0,0,0,-0.4494,-0.4495,0,-0.4587,-0.4588,-0.459,-0.4651,-0.4652,-0.4652,-0.4652,-0.4748,-0.475,-0.4752,0,0,0,0,0,0,0,0,0,0,0,0,0,-0.4368,-0.437,-0.4494,-0.4495,-0.4496,-0.4587,-0.4589,-0.459,-0.4651,-0.4652,-0.4652,-0.4653,-0.4747,-0.4749,-0.4752,0,0,0,0,0,0,0,0,0,0,0,0,0,-0.4438,-0.4371,-0.4494,-0.4538,-0.4543,-0.4587,-0.4589,-0.459,-0.4651,-0.4652,-0.4652,-0.4653,-0.4746,-0.4749,-0.4752,-0.476,0,0,-0.4762,-0.4764,0,0,0,0,0,0,0,0,-0.4434,-0.4443,-0.453,-0.4535,-0.454,-0.4608,-0.4579,-0.4647,-0.4651,-0.461,-0.4652,-0.4653,-0.4701,-0.4708,-0.4724,-0.4764,-0.4768,-0.4762,-0.4764,-0.4766,-0.4767,0,0,0,0,0,0,0,-0.4429,-0.4439,-0.4531,-0.4531,-0.4538,-0.4553,-0.4564,-0.4592,-0.4651,-0.4614,-0.4618,-0.4629,-0.4704,-0.4721,-0.4727,-0.477,-0.4762,-0.4765,-0.4767,-0.4768,-0.4821,-0.4821,0,0,0,0,0,0,-0.4418,-0.4435,-0.4528,-0.4534,-0.4488,-0.4555,-0.4567,-0.4586,-0.4651,-0.4661,-0.4628,-0.4631,-0.4715,-0.4723,-0.473,-0.4744,-0.4766,-0.4769,-0.4771,-0.4822,-0.4821,-0.4821,0,0,0,0,0,0,-0.4415,-0.4425,-0.4524,-0.4486,-0.4499,-0.4556,-0.4577,-0.4587,-0.4605,-0.4661,-0.4672,-0.4635,-0.4716,-0.4726,-0.4752,-0.4748,-0.477,-0.4773,-0.4823,-0.4822,-0.4821,-0.477,0,0,0,0,0,0,-0.4411,-0.4424,-0.4427,-0.4485,-0.4501,-0.4544,-0.4577,-0.4589,-0.461,-0.4615,-0.467,-0.468,-0.4717,-0.4747,-0.4755,-0.4752,-0.4776,-0.4823,-0.4822,-0.4821,-0.4772,-0.4767,-0.4763,0,0,0,0,0,-0.4406,-0.4409,-0.4427,-0.4438,-0.4507,-0.4544,-0.4553,-0.4596,-0.4609,-0.4613,-0.465,-0.4678,-0.4747,-0.4749,-0.4759,-0.4757,-0.4824,-0.4823,-0.4821,-0.4774,-0.4768,-0.4763,0,0,0,0,0,0,-0.4349,-0.4417,-0.4438,-0.446,-0.4496,-0.4554,-0.4561,-0.4588,-0.462,-0.4624,-0.4675,-0.4687,-0.4708,-0.4735,-0.4737,-0.4768,-0.4789,-0.4789,-0.4749,-0.4744,-0.474,-0.4733,-0.4778,0,0,0,0,0,-0.4339,-0.4364,-0.4422,-0.4436,-0.4453,-0.4503,-0.4521,-0.4551,-0.459,-0.4605,-0.4644,-0.468,-0.471,-0.4729,-0.4759,-0.4776,-0.4789,-0.478,-0.4775,-0.4771,-0.4772,-0.4783,-0.4779,-0.4817,-0.4817,-0.4817,0,0,-0.4318,-0.4359,-0.4371,-0.4425,-0.4456,-0.4481,-0.4516,-0.454,-0.4559,-0.4609,-0.4637,-0.4666,-0.471,-0.4732,-0.4744,-0.4755,-0.4764,-0.477,-0.4766,-0.4769,-0.4781,-0.4778,-0.4774,-0.4816,-0.4816,-0.4816,0,0,-0.4294,-0.4326,-0.4342,-0.4372,-0.4419,-0.4453,-0.4456,-0.4511,-0.4533,-0.4561,-0.4599,-0.4622,-0.4672,-0.4703,-0.4724,-0.4711,-0.4738,-0.4719,-0.4696,-0.4706,-0.4704,-0.4701,-0.4697,-0.4694,-0.4719,-0.4719,-0.4719,0,-0.4262,-0.4301,-0.4346,-0.4368,-0.4391,-0.4437,-0.4453,-0.4481,-0.4535,-0.4549,-0.4562,-0.4626,-0.4659,-0.4689,-0.4685,-0.4701,-0.4707,-0.4713,-0.47,-0.4698,-0.4697,-0.4693,-0.4691,-0.4716,-0.4717,-0.4717,-0.4717,0,-0.426,-0.4286,-0.4292,-0.4344,-0.4367,-0.4386,-0.4434,-0.4452,-0.448,-0.4512,-0.454,-0.4582,-0.4622,-0.4631,-0.4658,-0.4664,-0.467,-0.4691,-0.4713,-0.469,-0.4687,-0.4686,-0.4713,-0.4714,-0.4714,-0.4715,0,0,-0.4201,-0.4278,-0.4279,-0.4304,-0.4359,-0.438,-0.4401,-0.444,-0.4455,-0.449,-0.4509,-0.4551,-0.457,-0.4595,-0.4626,-0.4635,-0.4622,-0.4654,-0.4656,-0.4647,-0.4632,-0.4616,-0.4613,-0.464,-0.464,-0.464,-0.4628,0,-0.4185,-0.4225,-0.4267,-0.4292,-0.4317,-0.4362,-0.438,-0.4416,-0.4446,-0.4472,-0.4506,-0.4535,-0.4558,-0.4573,-0.4584,-0.4621,-0.4619,-0.4622,-0.4658,-0.4659,-0.4646,-0.4612,-0.4595,-0.4582,-0.4627,-0.4627,-0.4627,0,-0.4171,-0.4205,-0.4233,-0.4286,-0.4298,-0.4314,-0.4353,-0.4377,-0.4419,-0.4441,-0.4468,-0.4501,-0.4525,-0.4544,-0.4578,-0.4579,-0.4596,-0.4616,-0.4616,-0.4622,-0.4641,-0.4616,-0.4579,-0.4577,-0.4626,-0.4626,-0.4626,0,-0.4126,-0.4179,-0.4203,-0.4222,-0.4284,-0.4294,-0.4321,-0.4363,-0.4384,-0.4418,-0.4432,-0.4469,-0.4489,-0.4516,-0.4558,-0.4567,-0.4587,-0.4609,-0.4606,-0.4605,-0.4608,-0.4607,-0.4573,-0.4619,-0.4619,-0.4619,-0.4619,0,-0.4104,-0.4119,-0.4183,-0.4198,-0.4216,-0.4264,-0.4281,-0.4311,-0.4348,-0.437,-0.441,-0.4429,-0.4483,-0.4508,-0.4541,-0.4564,-0.4573,-0.4591,-0.46,-0.4588,-0.4585,-0.4599,-0.4602,-0.4618,-0.4618,-0.4618,-0.4619,0,-0.4056,-0.41,-0.4129,-0.4186,-0.42,-0.4212,-0.426,-0.4276,-0.4309,-0.4336,-0.4345,-0.4396,-0.4428,-0.4473,-0.4518,-0.454,-0.4559,-0.4572,-0.4545,-0.455,-0.4544,-0.4544,-0.4518,-0.4517,-0.4562,-0.4562,-0.4561,0,-0.4039,-0.4052,-0.411,-0.4128,-0.4153,-0.418,-0.4202,-0.4249,-0.427,-0.4318,-0.4328,-0.4363,-0.4394,-0.4443,-0.4484,-0.4519,-0.4534,-0.4522,-0.4539,-0.4527,-0.4534,-0.4533,-0.4534,-0.4518,-0.4517,-0.4517,-0.4516,0,-0.4004,-0.4025,-0.4055,-0.4092,-0.4117,-0.4149,-0.4182,-0.4194,-0.4248,-0.427,-0.4303,-0.4327,-0.4373,-0.4408,-0.4448,-0.4475,-0.4505,-0.4511,-0.4512,-0.45,-0.4483,-0.4492,-0.4534,-0.4511,-0.4512,-0.4512,-0.4512,-0.4512,-0.3972,-0.3985,-0.4029,-0.4061,-0.4091,-0.4121,-0.4139,-0.4174,-0.4203,-0.4245,-0.4271,-0.4303,-0.4344,-0.4402,-0.4428,-0.4453,-0.4465,-0.4467,-0.4467,-0.4467,-0.4463,-0.4479,-0.4461,-0.4461,-0.4461,-0.4461,-0.4461,0,-0.3939,-0.3969,-0.3998,-0.4044,-0.4069,-0.4095,-0.4133,-0.4152,-0.418,-0.4216,-0.4246,-0.4284,-0.4317,-0.4362,-0.4398,-0.441,-0.4425,-0.4418,-0.4418,-0.4424,-0.445,-0.4445,-0.4406,-0.4406,-0.4406,-0.4406,-0.4406,-0.4406,-0.3925,-0.395,-0.3976,-0.4016,-0.4046,-0.4078,-0.4097,-0.4126,-0.4155,-0.4196,-0.4224,-0.4253,-0.4292,-0.4332,-0.4364,-0.4376,-0.4388,-0.4377,-0.4393,-0.4417,-0.4422,-0.4427,-0.4423,-0.4379,-0.4379,-0.4365,-0.4365,-0.4365]}]]